Wetterdaten: aktuell Sonntag, 24.06.2018 04:59
Datum Zeit Temp. 2m Temp. 5cm Temp. -10cm Temp. 2m alt Feuchte A. Luftdruck Regen Wind Richtung Richtung Taupunkt Windchill Windben
24.06.2018 04:59 11,4 C 11,8 C 16,3 C 11,8 C 69 % 1022,3 hPa 0,0 l/m 2,3 km/h (1 Bft) SO 135 5,9 C 11,4 C 6,6 km/h (2 Bft)
24.06.2018 04:56 11,4 C 11,6 C 16,3 C 11,8 C 69 % 1022,3 hPa 0,0 l/m 2,3 km/h (1 Bft) S-SO 157 5,9 C 11,4 C 9,5 km/h (2 Bft)
24.06.2018 04:54 11,4 C 11,6 C 16,3 C 11,8 C 69 % 1022,3 hPa 0,0 l/m 2,1 km/h (1 Bft) S-SO 157 5,9 C 11,4 C 9,5 km/h (2 Bft)
24.06.2018 04:52 11,4 C 11,6 C 16,3 C 11,8 C 69 % 1022,3 hPa 0,0 l/m 1,9 km/h (1 Bft) S 180 5,9 C 11,4 C 6,2 km/h (2 Bft)
24.06.2018 04:50 11,4 C 11,5 C 16,3 C 11,8 C 69 % 1022,3 hPa 0,0 l/m 1,8 km/h (1 Bft) W-SW 247 5,9 C 11,4 C 4,1 km/h (1 Bft)
24.06.2018 04:48 11,4 C 11,5 C 16,3 C 11,8 C 69 % 1022,3 hPa 0,0 l/m 1,8 km/h (1 Bft) W 270 5,9 C 11,4 C 4,8 km/h (1 Bft)
24.06.2018 04:46 11,4 C 11,6 C 16,3 C 11,8 C 69 % 1022,4 hPa 0,0 l/m 2,1 km/h (1 Bft) S-SW 202 5,9 C 11,4 C 6,2 km/h (2 Bft)
24.06.2018 04:44 11,4 C 11,5 C 16,3 C 11,8 C 69 % 1022,4 hPa 0,0 l/m 2,3 km/h (1 Bft) S-SW 202 5,9 C 11,4 C 6,2 km/h (2 Bft)
24.06.2018 04:42 11,4 C 11,5 C 16,3 C 11,8 C 69 % 1022,4 hPa 0,0 l/m 2,1 km/h (1 Bft) S-SO 157 5,9 C 11,4 C 3,9 km/h (1 Bft)
24.06.2018 04:40 11,4 C 11,5 C 16,3 C 11,8 C 69 % 1022,4 hPa 0,0 l/m 2,4 km/h (1 Bft) S-SO 157 5,9 C 11,4 C 2,5 km/h (1 Bft)
24.06.2018 04:39 11,4 C 11,5 C 16,3 C 11,8 C 69 % 1022,4 hPa 0,0 l/m 2,6 km/h (1 Bft) NO 45 5,9 C 11,4 C 6,2 km/h (2 Bft)
24.06.2018 04:36 11,4 C 11,4 C 16,3 C 11,8 C 69 % 1022,4 hPa 0,0 l/m 2,3 km/h (1 Bft) S 180 5,9 C 11,4 C 6,4 km/h (2 Bft)
24.06.2018 04:34 11,4 C 11,4 C 16,3 C 11,8 C 69 % 1022,4 hPa 0,0 l/m 2,4 km/h (1 Bft) S-SO 157 5,9 C 11,4 C 4,6 km/h (1 Bft)
24.06.2018 04:32 11,4 C 11,4 C 16,3 C 11,8 C 70 % 1022,4 hPa 0,0 l/m 2,6 km/h (1 Bft) W-SW 247 6,1 C 11,4 C 5,2 km/h (1 Bft)
24.06.2018 04:30 11,4 C 11,4 C 16,3 C 11,8 C 70 % 1022,4 hPa 0,0 l/m 2,7 km/h (1 Bft) S 180 6,1 C 11,4 C 5,2 km/h (1 Bft)
24.06.2018 04:28 11,4 C 11,4 C 16,3 C 11,8 C 69 % 1022,4 hPa 0,0 l/m 3,2 km/h (1 Bft) SO 135 5,9 C 11,4 C 2,3 km/h (1 Bft)
24.06.2018 04:26 11,4 C 11,3 C 16,3 C 11,8 C 69 % 1022,3 hPa 0,0 l/m 3,5 km/h (1 Bft) S-SO 157 5,9 C 11,4 C 7,0 km/h (2 Bft)
24.06.2018 04:24 11,4 C 11,3 C 16,3 C 11,8 C 69 % 1022,3 hPa 0,0 l/m 3,2 km/h (1 Bft) SO 135 5,9 C 11,4 C 7,0 km/h (2 Bft)
24.06.2018 04:22 11,4 C 11,3 C 16,3 C 11,8 C 69 % 1022,3 hPa 0,0 l/m 3,1 km/h (1 Bft) W-SW 247 5,9 C 11,4 C 7,7 km/h (2 Bft)
24.06.2018 04:20 11,4 C 11,3 C 16,3 C 11,8 C 69 % 1022,3 hPa 0,0 l/m 2,6 km/h (1 Bft) S 180 5,9 C 11,4 C 7,7 km/h (2 Bft)
24.06.2018 04:18 11,4 C 11,3 C 16,3 C 11,8 C 69 % 1022,3 hPa 0,0 l/m 2,3 km/h (1 Bft) S 180 5,9 C 11,4 C 4,8 km/h (1 Bft)
24.06.2018 04:16 11,4 C 11,2 C 16,3 C 11,8 C 69 % 1022,3 hPa 0,0 l/m 2,1 km/h (1 Bft) W-SW 247 5,9 C 11,4 C 4,2 km/h (1 Bft)
24.06.2018 04:14 11,4 C 11,2 C 16,3 C 11,8 C 69 % 1022,3 hPa 0,0 l/m 1,9 km/h (1 Bft) SW 225 5,9 C 11,4 C 5,0 km/h (1 Bft)
24.06.2018 04:12 11,4 C 11,2 C 16,3 C 11,8 C 69 % 1022,3 hPa 0,0 l/m 2,4 km/h (1 Bft) S 180 5,9 C 11,4 C 5,0 km/h (1 Bft)
24.06.2018 04:10 11,4 C 11,1 C 16,3 C 11,8 C 69 % 1022,3 hPa 0,0 l/m 2,1 km/h (1 Bft) S-SO 157 5,9 C 11,4 C 3,1 km/h (1 Bft)
24.06.2018 04:08 11,4 C 11,2 C 16,3 C 11,8 C 69 % 1022,3 hPa 0,0 l/m 1,9 km/h (1 Bft) SW 225 5,9 C 11,4 C 3,3 km/h (1 Bft)
24.06.2018 04:06 11,4 C 11,1 C 16,3 C 11,8 C 69 % 1022,6 hPa 0,0 l/m 1,9 km/h (1 Bft) S-SW 202 5,9 C 11,4 C 4,8 km/h (1 Bft)
24.06.2018 04:04 11,4 C 11,1 C 16,4 C 11,8 C 69 % 1022,6 hPa 0,0 l/m 1,9 km/h (1 Bft) S-SO 157 5,9 C 11,4 C 6,2 km/h (2 Bft)
24.06.2018 04:02 11,4 C 11,0 C 16,4 C 11,8 C 69 % 1022,6 hPa 0,0 l/m 1,8 km/h (1 Bft) S-SO 157 5,9 C 11,4 C 6,2 km/h (2 Bft)
24.06.2018 04:00 11,4 C 11,1 C 16,4 C 11,8 C 70 % 1022,6 hPa 0,0 l/m 1,8 km/h (1 Bft) S-SO 157 6,1 C 11,4 C 4,6 km/h (1 Bft)
24.06.2018 03:59 11,4 C 11,0 C 16,4 C 11,8 C 69 % 1022,6 hPa 0,0 l/m 1,9 km/h (1 Bft) S-SO 157 5,9 C 11,4 C 0,0 km/h (0 Bft)
24.06.2018 03:56 11,4 C 11,0 C 16,4 C 11,9 C 69 % 1022,6 hPa 0,0 l/m 2,1 km/h (1 Bft) S 180 5,9 C 11,4 C 4,2 km/h (1 Bft)
24.06.2018 03:54 11,4 C 11,0 C 16,4 C 11,9 C 69 % 1022,6 hPa 0,0 l/m 1,8 km/h (1 Bft) S-SO 157 5,9 C 11,4 C 3,5 km/h (1 Bft)
24.06.2018 03:52 11,4 C 11,0 C 16,4 C 11,9 C 69 % 1022,6 hPa 0,0 l/m 1,9 km/h (1 Bft) W 270 5,9 C 11,4 C 3,3 km/h (1 Bft)
24.06.2018 03:50 11,4 C 11,0 C 16,4 C 11,9 C 69 % 1022,6 hPa 0,0 l/m 1,9 km/h (1 Bft) S-SO 157 5,9 C 11,4 C 1,9 km/h (1 Bft)
24.06.2018 03:48 11,4 C 11,0 C 16,4 C 11,9 C 69 % 1022,6 hPa 0,0 l/m 1,8 km/h (1 Bft) S 180 5,9 C 11,4 C 3,9 km/h (1 Bft)
24.06.2018 03:46 11,4 C 11,0 C 16,4 C 11,9 C 68 % 1022,6 hPa 0,0 l/m 2,4 km/h (1 Bft) W-SW 247 5,7 C 11,4 C 4,4 km/h (1 Bft)
24.06.2018 03:44 11,4 C 10,9 C 16,4 C 11,9 C 68 % 1022,6 hPa 0,0 l/m 2,4 km/h (1 Bft) S-SW 202 5,7 C 11,4 C 6,2 km/h (2 Bft)
24.06.2018 03:42 11,4 C 11,0 C 16,4 C 12,0 C 68 % 1022,6 hPa 0,0 l/m 2,7 km/h (1 Bft) S 180 5,7 C 11,4 C 6,2 km/h (2 Bft)
24.06.2018 03:40 11,5 C 10,9 C 16,4 C 12,0 C 68 % 1022,6 hPa 0,0 l/m 3,5 km/h (1 Bft) S 180 5,8 C 11,5 C 4,8 km/h (1 Bft)
24.06.2018 03:38 11,5 C 10,9 C 16,4 C 12,0 C 68 % 1022,6 hPa 0,0 l/m 3,7 km/h (1 Bft) S-SO 157 5,8 C 11,5 C 8,9 km/h (2 Bft)
24.06.2018 03:36 11,5 C 10,9 C 16,4 C 12,1 C 68 % 1022,6 hPa 0,0 l/m 4,0 km/h (1 Bft) S 180 5,8 C 11,5 C 8,9 km/h (2 Bft)
24.06.2018 03:34 11,6 C 11,0 C 16,4 C 12,1 C 66 % 1022,6 hPa 0,0 l/m 3,9 km/h (1 Bft) O-SO 112 5,5 C 11,6 C 4,4 km/h (1 Bft)
24.06.2018 03:32 11,6 C 11,1 C 16,4 C 12,1 C 66 % 1022,6 hPa 0,0 l/m 4,2 km/h (1 Bft) W-SW 247 5,5 C 11,6 C 15,4 km/h (3 Bft)
24.06.2018 03:30 11,7 C 11,3 C 16,4 C 12,1 C 66 % 1022,6 hPa 0,0 l/m 4,0 km/h (1 Bft) S-SW 202 5,6 C 11,7 C 15,4 km/h (3 Bft)
24.06.2018 03:28 11,7 C 11,4 C 16,4 C 12,2 C 66 % 1022,6 hPa 0,0 l/m 4,2 km/h (1 Bft) W-SW 247 5,6 C 11,7 C 7,5 km/h (2 Bft)
24.06.2018 03:26 11,7 C 11,6 C 16,4 C 12,2 C 66 % 1022,9 hPa 0,0 l/m 4,5 km/h (1 Bft) SW 225 5,6 C 11,7 C 7,5 km/h (2 Bft)
24.06.2018 03:24 11,8 C 11,8 C 16,4 C 12,2 C 66 % 1022,9 hPa 0,0 l/m 4,3 km/h (1 Bft) SW 225 5,7 C 11,8 C 7,0 km/h (2 Bft)
24.06.2018 03:22 11,8 C 12,0 C 16,4 C 12,2 C 66 % 1022,9 hPa 0,0 l/m 4,2 km/h (1 Bft) W-SW 247 5,7 C 11,8 C 7,0 km/h (2 Bft)
24.06.2018 03:20 11,8 C 12,1 C 16,4 C 12,2 C 66 % 1022,9 hPa 0,0 l/m 3,9 km/h (1 Bft) W-SW 247 5,7 C 11,8 C 11,0 km/h (2 Bft)
24.06.2018 03:18 11,7 C 12,1 C 16,4 C 12,2 C 66 % 1022,9 hPa 0,0 l/m 4,2 km/h (1 Bft) S 180 5,6 C 11,7 C 11,0 km/h (2 Bft)
24.06.2018 03:16 11,7 C 12,1 C 16,4 C 12,2 C 66 % 1022,9 hPa 0,0 l/m 3,2 km/h (1 Bft) W-SW 247 5,6 C 11,7 C 8,7 km/h (2 Bft)
24.06.2018 03:14 11,7 C 12,0 C 16,4 C 12,3 C 66 % 1022,9 hPa 0,0 l/m 3,4 km/h (1 Bft) O 90 5,6 C 11,7 C 10,6 km/h (2 Bft)
24.06.2018 03:12 11,7 C 12,0 C 16,4 C 12,2 C 66 % 1022,9 hPa 0,0 l/m 3,7 km/h (1 Bft) S 180 5,6 C 11,7 C 10,8 km/h (2 Bft)
24.06.2018 03:10 11,8 C 12,1 C 16,4 C 12,3 C 65 % 1022,9 hPa 0,0 l/m 3,7 km/h (1 Bft) SW 225 5,4 C 11,8 C 10,8 km/h (2 Bft)
24.06.2018 03:08 11,8 C 12,1 C 16,4 C 12,3 C 65 % 1022,9 hPa 0,0 l/m 3,7 km/h (1 Bft) SW 225 5,4 C 11,8 C 10,8 km/h (2 Bft)
24.06.2018 03:06 11,8 C 12,1 C 16,4 C 12,3 C 65 % 1022,9 hPa 0,0 l/m 3,7 km/h (1 Bft) SW 225 5,4 C 11,8 C 10,8 km/h (2 Bft)
24.06.2018 03:04 11,8 C 12,1 C 16,4 C 12,3 C 65 % 1022,9 hPa 0,0 l/m 3,7 km/h (1 Bft) SW 225 5,4 C 11,8 C 10,8 km/h (2 Bft)
24.06.2018 03:02 11,8 C 12,1 C 16,4 C 12,3 C 65 % 1022,9 hPa 0,0 l/m 3,7 km/h (1 Bft) SW 225 5,4 C 11,8 C 10,8 km/h (2 Bft)
24.06.2018 03:00 11,8 C 12,1 C 16,4 C 12,3 C 65 % 1022,9 hPa 0,0 l/m 3,7 km/h (1 Bft) SW 225 5,4 C 11,8 C 10,8 km/h (2 Bft)
24.06.2018 02:58 11,8 C 12,0 C 16,4 C 12,3 C 65 % 1022,9 hPa 0,0 l/m 3,5 km/h (1 Bft) W-SW 247 5,4 C 11,8 C 7,7 km/h (2 Bft)
24.06.2018 02:56 11,8 C 11,9 C 16,4 C 12,3 C 65 % 1022,9 hPa 0,0 l/m 3,9 km/h (1 Bft) S-SO 157 5,4 C 11,8 C 9,5 km/h (2 Bft)
24.06.2018 02:54 11,8 C 11,9 C 16,4 C 12,3 C 65 % 1022,9 hPa 0,0 l/m 4,2 km/h (1 Bft) S 180 5,4 C 11,8 C 9,5 km/h (2 Bft)
24.06.2018 02:52 11,8 C 11,9 C 16,4 C 12,3 C 65 % 1022,9 hPa 0,0 l/m 4,0 km/h (1 Bft) W 270 5,4 C 11,8 C 5,4 km/h (1 Bft)
24.06.2018 02:50 11,8 C 11,9 C 16,4 C 12,3 C 65 % 1022,9 hPa 0,0 l/m 4,5 km/h (1 Bft) S 180 5,4 C 11,8 C 9,7 km/h (2 Bft)
24.06.2018 02:48 11,8 C 11,9 C 16,4 C 12,3 C 65 % 1022,9 hPa 0,0 l/m 4,5 km/h (1 Bft) S-SO 157 5,4 C 11,8 C 9,7 km/h (2 Bft)
24.06.2018 02:46 11,8 C 11,9 C 16,4 C 12,3 C 65 % 1022,9 hPa 0,0 l/m 4,3 km/h (1 Bft) W 270 5,4 C 11,8 C 7,1 km/h (2 Bft)
24.06.2018 02:44 11,8 C 11,8 C 16,4 C 12,3 C 65 % 1022,9 hPa 0,0 l/m 4,5 km/h (1 Bft) S 180 5,4 C 11,8 C 6,6 km/h (2 Bft)
24.06.2018 02:42 11,8 C 11,8 C 16,4 C 12,3 C 66 % 1022,9 hPa 0,0 l/m 4,3 km/h (1 Bft) W-SW 247 5,7 C 11,8 C 14,5 km/h (3 Bft)
24.06.2018 02:40 11,8 C 11,7 C 16,4 C 12,3 C 65 % 1022,9 hPa 0,0 l/m 5,0 km/h (1 Bft) SW 225 5,4 C 11,8 C 14,5 km/h (3 Bft)
24.06.2018 02:38 11,8 C 11,7 C 16,4 C 12,3 C 65 % 1022,9 hPa 0,0 l/m 5,5 km/h (1 Bft) S 180 5,4 C 11,8 C 4,8 km/h (1 Bft)
24.06.2018 02:36 11,8 C 11,6 C 16,5 C 12,3 C 65 % 1022,9 hPa 0,0 l/m 5,5 km/h (1 Bft) O 90 5,4 C 11,8 C 7,7 km/h (2 Bft)
24.06.2018 02:34 11,8 C 11,6 C 16,5 C 12,3 C 65 % 1022,9 hPa 0,0 l/m 5,5 km/h (1 Bft) SW 225 5,4 C 11,8 C 7,7 km/h (2 Bft)
24.06.2018 02:32 11,8 C 11,6 C 16,5 C 12,3 C 65 % 1022,9 hPa 0,0 l/m 5,6 km/h (1 Bft) W-SW 247 5,4 C 11,8 C 12,4 km/h (3 Bft)
24.06.2018 02:30 11,8 C 11,6 C 16,5 C 12,3 C 65 % 1022,9 hPa 0,0 l/m 5,6 km/h (1 Bft) W-SW 247 5,4 C 11,8 C 15,3 km/h (3 Bft)
24.06.2018 02:28 11,8 C 11,5 C 16,5 C 12,4 C 65 % 1022,9 hPa 0,0 l/m 6,1 km/h (2 Bft) S-SO 157 5,4 C 11,8 C 15,3 km/h (3 Bft)
24.06.2018 02:26 11,8 C 11,5 C 16,5 C 12,4 C 65 % 1023,0 hPa 0,0 l/m 6,0 km/h (2 Bft) NW 315 5,4 C 11,8 C 7,0 km/h (2 Bft)
24.06.2018 02:24 11,8 C 11,5 C 16,5 C 12,4 C 65 % 1023,0 hPa 0,0 l/m 6,0 km/h (2 Bft) S 180 5,4 C 11,8 C 15,6 km/h (3 Bft)
24.06.2018 02:22 11,8 C 11,4 C 16,5 C 12,4 C 65 % 1023,0 hPa 0,0 l/m 6,9 km/h (2 Bft) SW 225 5,4 C 11,5 C 15,6 km/h (3 Bft)
24.06.2018 02:20 11,9 C 11,3 C 16,5 C 12,4 C 64 % 1023,0 hPa 0,0 l/m 6,4 km/h (2 Bft) SW 225 5,3 C 11,9 C 10,2 km/h (2 Bft)
24.06.2018 02:18 11,9 C 11,2 C 16,5 C 12,4 C 64 % 1023,0 hPa 0,0 l/m 5,8 km/h (2 Bft) SW 225 5,3 C 11,9 C 9,7 km/h (2 Bft)
24.06.2018 02:16 11,9 C 11,1 C 16,5 C 12,5 C 64 % 1023,0 hPa 0,0 l/m 5,6 km/h (1 Bft) SW 225 5,3 C 11,9 C 9,7 km/h (2 Bft)
24.06.2018 02:14 11,9 C 11,0 C 16,5 C 12,5 C 64 % 1023,0 hPa 0,0 l/m 5,6 km/h (1 Bft) S-SO 157 5,3 C 11,9 C 15,8 km/h (3 Bft)
24.06.2018 02:12 12,0 C 11,0 C 16,6 C 12,6 C 62 % 1023,0 hPa 0,0 l/m 6,6 km/h (2 Bft) W-SW 247 4,9 C 11,9 C 15,8 km/h (3 Bft)
24.06.2018 02:10 12,0 C 11,1 C 16,6 C 12,6 C 62 % 1023,0 hPa 0,0 l/m 6,3 km/h (2 Bft) SO 135 4,9 C 12,0 C 8,3 km/h (2 Bft)
24.06.2018 02:08 12,0 C 11,1 C 16,6 C 12,6 C 62 % 1023,0 hPa 0,0 l/m 6,4 km/h (2 Bft) W-NW 292 4,9 C 12,0 C 10,0 km/h (2 Bft)
24.06.2018 02:06 12,0 C 11,1 C 16,6 C 12,6 C 61 % 1023,2 hPa 0,0 l/m 6,6 km/h (2 Bft) SW 225 4,7 C 11,9 C 10,0 km/h (2 Bft)
24.06.2018 02:04 12,1 C 11,4 C 16,5 C 12,7 C 60 % 1023,2 hPa 0,0 l/m 6,4 km/h (2 Bft) SW 225 4,6 C 12,1 C 16,6 km/h (3 Bft)
24.06.2018 02:02 12,1 C 11,7 C 16,5 C 12,7 C 60 % 1023,2 hPa 0,0 l/m 5,5 km/h (1 Bft) W-SW 247 4,6 C 12,1 C 16,6 km/h (3 Bft)
24.06.2018 02:00 12,1 C 11,7 C 16,5 C 12,7 C 60 % 1023,2 hPa 0,0 l/m 4,5 km/h (1 Bft) W-SW 247 4,6 C 12,1 C 11,4 km/h (2 Bft)
24.06.2018 01:58 12,1 C 11,6 C 16,5 C 12,7 C 60 % 1023,2 hPa 0,0 l/m 4,5 km/h (1 Bft) W-SW 247 4,6 C 12,1 C 11,2 km/h (2 Bft)
24.06.2018 01:56 12,1 C 11,6 C 16,6 C 12,7 C 60 % 1023,2 hPa 0,0 l/m 4,3 km/h (1 Bft) SW 225 4,6 C 12,1 C 11,2 km/h (2 Bft)
24.06.2018 01:54 12,1 C 11,5 C 16,6 C 12,7 C 60 % 1023,2 hPa 0,0 l/m 4,2 km/h (1 Bft) S 180 4,6 C 12,1 C 5,2 km/h (1 Bft)
24.06.2018 01:52 12,1 C 11,3 C 16,6 C 12,7 C 60 % 1023,2 hPa 0,0 l/m 4,8 km/h (1 Bft) S 180 4,6 C 12,1 C 24,7 km/h (4 Bft)
24.06.2018 01:50 12,1 C 11,2 C 16,6 C 12,7 C 60 % 1023,2 hPa 0,0 l/m 6,3 km/h (2 Bft) S 180 4,6 C 12,1 C 10,4 km/h (2 Bft)
24.06.2018 01:48 12,2 C 11,2 C 16,6 C 12,8 C 59 % 1023,2 hPa 0,0 l/m 7,1 km/h (2 Bft) W 270 4,4 C 11,7 C 10,4 km/h (2 Bft)
24.06.2018 01:46 12,3 C 11,2 C 16,6 C 12,8 C 59 % 1023,1 hPa 0,0 l/m 6,8 km/h (2 Bft) S 180 4,5 C 12,0 C 9,7 km/h (2 Bft)
24.06.2018 01:44 12,3 C 11,1 C 16,6 C 12,8 C 59 % 1023,1 hPa 0,0 l/m 7,4 km/h (2 Bft) SW 225 4,5 C 11,6 C 9,1 km/h (2 Bft)
24.06.2018 01:42 12,3 C 11,3 C 16,6 C 12,9 C 58 % 1023,1 hPa 0,0 l/m 6,6 km/h (2 Bft) SW 225 4,3 C 12,2 C 12,4 km/h (3 Bft)
24.06.2018 01:40 12,3 C 11,4 C 16,6 C 12,9 C 59 % 1023,1 hPa 0,0 l/m 6,1 km/h (2 Bft) S 180 4,5 C 12,3 C 12,4 km/h (3 Bft)
24.06.2018 01:38 12,3 C 11,5 C 16,6 C 12,9 C 58 % 1023,1 hPa 0,0 l/m 6,8 km/h (2 Bft) SW 225 4,3 C 12,0 C 9,5 km/h (2 Bft)
24.06.2018 01:36 12,4 C 11,7 C 16,6 C 13,0 C 57 % 1023,1 hPa 0,0 l/m 7,4 km/h (2 Bft) W-SW 247 4,1 C 11,7 C 8,5 km/h (2 Bft)
24.06.2018 01:34 12,4 C 12,2 C 16,6 C 13,0 C 58 % 1023,1 hPa 0,0 l/m 7,2 km/h (2 Bft) W-SW 247 4,4 C 11,9 C 8,5 km/h (2 Bft)
24.06.2018 01:32 12,4 C 12,7 C 16,6 C 13,0 C 57 % 1023,1 hPa 0,0 l/m 7,6 km/h (2 Bft) SW 225 4,1 C 11,6 C 23,8 km/h (4 Bft)
24.06.2018 01:30 12,4 C 12,8 C 16,6 C 13,0 C 57 % 1023,1 hPa 0,0 l/m 7,4 km/h (2 Bft) SW 225 4,1 C 11,7 C 12,4 km/h (3 Bft)
24.06.2018 01:28 12,5 C 12,9 C 16,6 C 13,0 C 56 % 1023,1 hPa 0,0 l/m 7,4 km/h (2 Bft) W 270 4,0 C 11,9 C 23,8 km/h (4 Bft)
24.06.2018 01:26 12,5 C 12,8 C 16,6 C 13,1 C 56 % 1022,9 hPa 0,0 l/m 6,4 km/h (2 Bft) S-SW 202 4,0 C 12,5 C 23,8 km/h (4 Bft)
24.06.2018 01:24 12,5 C 12,8 C 16,6 C 13,1 C 56 % 1022,9 hPa 0,0 l/m 6,0 km/h (2 Bft) S-SO 157 4,0 C 12,5 C 9,3 km/h (2 Bft)
24.06.2018 01:22 12,5 C 12,8 C 16,6 C 13,1 C 56 % 1022,9 hPa 0,0 l/m 5,6 km/h (1 Bft) W-SW 247 4,0 C 12,5 C 16,8 km/h (3 Bft)
24.06.2018 01:20 12,5 C 12,7 C 16,6 C 13,1 C 56 % 1022,9 hPa 0,0 l/m 6,1 km/h (2 Bft) W-SW 247 4,0 C 12,5 C 7,9 km/h (2 Bft)
24.06.2018 01:18 12,5 C 12,7 C 16,6 C 13,1 C 56 % 1022,9 hPa 0,0 l/m 6,1 km/h (2 Bft) SW 225 4,0 C 12,5 C 13,1 km/h (3 Bft)
24.06.2018 01:16 12,5 C 12,6 C 16,7 C 13,1 C 55 % 1022,9 hPa 0,0 l/m 5,5 km/h (1 Bft) SW 225 3,7 C 12,5 C 13,1 km/h (3 Bft)
24.06.2018 01:14 12,5 C 12,6 C 16,7 C 13,1 C 55 % 1022,9 hPa 0,0 l/m 5,8 km/h (2 Bft) S 180 3,7 C 12,5 C 7,5 km/h (2 Bft)
24.06.2018 01:12 12,5 C 12,5 C 16,7 C 13,1 C 55 % 1022,9 hPa 0,0 l/m 6,0 km/h (2 Bft) S-SW 202 3,7 C 12,5 C 15,1 km/h (3 Bft)
24.06.2018 01:10 12,5 C 12,5 C 16,7 C 13,1 C 55 % 1022,9 hPa 0,0 l/m 5,6 km/h (1 Bft) S 180 3,7 C 12,5 C 10,6 km/h (2 Bft)
24.06.2018 01:08 12,5 C 12,7 C 16,7 C 13,1 C 55 % 1022,9 hPa 0,0 l/m 5,5 km/h (1 Bft) W 270 3,7 C 12,5 C 6,0 km/h (2 Bft)
24.06.2018 01:06 12,6 C 12,8 C 16,7 C 13,1 C 55 % 1023,2 hPa 0,0 l/m 5,3 km/h (1 Bft) SO 135 3,8 C 12,6 C 9,7 km/h (2 Bft)
24.06.2018 01:04 12,6 C 12,8 C 16,7 C 13,1 C 54 % 1023,2 hPa 0,0 l/m 5,0 km/h (1 Bft) SW 225 3,5 C 12,6 C 10,8 km/h (2 Bft)
24.06.2018 01:02 12,6 C 12,8 C 16,7 C 13,2 C 54 % 1023,2 hPa 0,0 l/m 4,5 km/h (1 Bft) W-SW 247 3,5 C 12,6 C 10,8 km/h (2 Bft)
24.06.2018 01:00 12,6 C 12,8 C 16,7 C 13,2 C 54 % 1023,2 hPa 0,0 l/m 4,3 km/h (1 Bft) W-SW 247 3,5 C 12,6 C 10,2 km/h (2 Bft)
24.06.2018 00:58 12,6 C 12,7 C 16,7 C 13,2 C 54 % 1023,2 hPa 0,0 l/m 4,2 km/h (1 Bft) NW 315 3,5 C 12,6 C 10,2 km/h (2 Bft)
24.06.2018 00:56 12,7 C 12,7 C 16,7 C 13,2 C 55 % 1023,2 hPa 0,0 l/m 3,4 km/h (1 Bft) SW 225 3,9 C 12,7 C 6,0 km/h (2 Bft)
24.06.2018 00:54 12,7 C 12,8 C 16,7 C 13,3 C 54 % 1023,2 hPa 0,0 l/m 3,4 km/h (1 Bft) S 180 3,6 C 12,7 C 4,6 km/h (1 Bft)
24.06.2018 00:52 12,7 C 12,8 C 16,7 C 13,3 C 54 % 1023,2 hPa 0,0 l/m 3,2 km/h (1 Bft) W-SW 247 3,6 C 12,7 C 5,4 km/h (1 Bft)
24.06.2018 00:50 12,7 C 12,7 C 16,7 C 13,3 C 54 % 1023,2 hPa 0,0 l/m 3,1 km/h (1 Bft) S-SW 202 3,6 C 12,7 C 12,6 km/h (3 Bft)
24.06.2018 00:48 12,8 C 12,6 C 16,7 C 13,4 C 54 % 1023,2 hPa 0,0 l/m 3,5 km/h (1 Bft) W-SW 247 3,7 C 12,8 C 12,6 km/h (3 Bft)
24.06.2018 00:46 12,8 C 12,3 C 16,7 C 13,4 C 53 % 1023,4 hPa 0,0 l/m 3,7 km/h (1 Bft) W 270 3,5 C 12,8 C 2,1 km/h (1 Bft)
24.06.2018 00:44 12,9 C 12,1 C 16,7 C 13,4 C 53 % 1023,4 hPa 0,0 l/m 4,0 km/h (1 Bft) SW 225 3,6 C 12,9 C 4,6 km/h (1 Bft)
24.06.2018 00:42 12,9 C 11,9 C 16,7 C 13,5 C 52 % 1023,4 hPa 0,0 l/m 4,5 km/h (1 Bft) S-SO 157 3,3 C 12,9 C 14,5 km/h (3 Bft)
24.06.2018 00:40 12,9 C 11,9 C 16,7 C 13,5 C 52 % 1023,4 hPa 0,0 l/m 5,0 km/h (1 Bft) SO 135 3,3 C 12,9 C 6,2 km/h (2 Bft)
24.06.2018 00:39 13,0 C 12,1 C 16,7 C 13,5 C 51 % 1023,4 hPa 0,0 l/m 5,5 km/h (1 Bft) W 270 3,1 C 13,0 C 14,5 km/h (3 Bft)
24.06.2018 00:36 13,0 C 12,3 C 16,7 C 13,5 C 51 % 1023,4 hPa 0,0 l/m 4,8 km/h (1 Bft) W-SW 247 3,1 C 13,0 C 9,3 km/h (2 Bft)
24.06.2018 00:34 13,1 C 12,9 C 16,7 C 13,5 C 50 % 1023,4 hPa 0,0 l/m 4,5 km/h (1 Bft) W-SW 247 2,9 C 13,1 C 9,3 km/h (2 Bft)
24.06.2018 00:32 13,0 C 13,3 C 16,7 C 13,5 C 50 % 1023,4 hPa 0,0 l/m 4,0 km/h (1 Bft) S 180 2,8 C 13,0 C 12,7 km/h (3 Bft)
24.06.2018 00:30 13,1 C 13,3 C 16,7 C 13,5 C 50 % 1023,4 hPa 0,0 l/m 3,4 km/h (1 Bft) SW 225 2,9 C 13,1 C 9,3 km/h (2 Bft)
24.06.2018 00:28 13,1 C 13,3 C 16,7 C 13,5 C 50 % 1023,4 hPa 0,0 l/m 3,4 km/h (1 Bft) W-SW 247 2,9 C 13,1 C 9,3 km/h (2 Bft)
24.06.2018 00:26 13,1 C 13,3 C 16,7 C 13,6 C 50 % 1023,4 hPa 0,0 l/m 3,5 km/h (1 Bft) S 180 2,9 C 13,1 C 5,2 km/h (1 Bft)
24.06.2018 00:24 13,1 C 13,3 C 16,7 C 13,6 C 50 % 1023,4 hPa 0,0 l/m 3,7 km/h (1 Bft) SW 225 2,9 C 13,1 C 5,2 km/h (1 Bft)
24.06.2018 00:22 13,1 C 13,2 C 16,8 C 13,6 C 50 % 1023,4 hPa 0,0 l/m 4,0 km/h (1 Bft) S-SO 157 2,9 C 13,1 C 12,2 km/h (2 Bft)
24.06.2018 00:20 13,1 C 13,0 C 16,8 C 13,6 C 50 % 1023,4 hPa 0,0 l/m 4,3 km/h (1 Bft) S 180 2,9 C 13,1 C 9,5 km/h (2 Bft)
24.06.2018 00:18 13,1 C 12,9 C 16,8 C 13,6 C 50 % 1023,4 hPa 0,0 l/m 4,3 km/h (1 Bft) O-SO 112 2,9 C 13,1 C 9,5 km/h (2 Bft)
24.06.2018 00:16 13,1 C 12,7 C 16,8 C 13,6 C 49 % 1023,4 hPa 0,0 l/m 4,2 km/h (1 Bft) W-SW 247 2,6 C 13,1 C 5,4 km/h (1 Bft)
24.06.2018 00:14 13,1 C 12,7 C 16,8 C 13,7 C 49 % 1023,4 hPa 0,0 l/m 4,2 km/h (1 Bft) SW 225 2,6 C 13,1 C 5,4 km/h (1 Bft)
24.06.2018 00:12 13,2 C 12,7 C 16,8 C 13,7 C 49 % 1023,4 hPa 0,0 l/m 4,3 km/h (1 Bft) W-SW 247 2,7 C 13,2 C 9,8 km/h (2 Bft)
24.06.2018 00:10 13,3 C 13,4 C 16,8 C 13,7 C 48 % 1023,4 hPa 0,0 l/m 3,5 km/h (1 Bft) S 180 2,5 C 13,3 C 9,8 km/h (2 Bft)
24.06.2018 00:08 13,3 C 13,4 C 16,8 C 13,7 C 48 % 1023,4 hPa 0,0 l/m 3,5 km/h (1 Bft) S 180 2,5 C 13,3 C 9,8 km/h (2 Bft)
24.06.2018 00:06 13,3 C 13,4 C 16,8 C 13,7 C 48 % 1024,1 hPa 0,0 l/m 3,5 km/h (1 Bft) S 180 2,5 C 13,3 C 9,8 km/h (2 Bft)
24.06.2018 00:04 13,3 C 13,4 C 16,8 C 13,7 C 48 % 1024,1 hPa 0,0 l/m 3,5 km/h (1 Bft) S 180 2,5 C 13,3 C 9,8 km/h (2 Bft)
24.06.2018 00:02 13,3 C 13,4 C 16,8 C 13,7 C 48 % 1024,1 hPa 0,0 l/m 3,5 km/h (1 Bft) S 180 2,5 C 13,3 C 9,8 km/h (2 Bft)
24.06.2018 00:00 13,3 C 13,4 C 16,8 C 13,8 C 48 % 1024,1 hPa 0,0 l/m 3,5 km/h (1 Bft) S 180 2,5 C 13,3 C 9,8 km/h (2 Bft)
_ Min-Zeit 03:42 03:36 04:06 03:59 00:00 04:08 - 03:48 - - 00:00 03:42 03:59
Minimum _ 11,4 C 10,9 C 16,3 C 11,8 C 48 % 1022,3 hPa - 1,8 km/h (1 Bft) - - 2,5 C 11,4 C 0,0 km/h (0 Bft)
_ Max-Zeit 00:00 00:00 00:00 00:00 04:00 00:00 00:00 01:32 - - 04:00 00:00 01:52
Maximum _ 13,3 C 13,4 C 16,8 C 13,8 C 70 % 1024,1 hPa 0,0 l/m 7,6 km/h
SW (2 Bft)
- - 6,1 C 13,3 C 24,7 km/h
S (4 Bft)
Durchschnitt _ 12,1 C 11,9 C 16,5 C 12,6 C 62 % 1022,9 hPa #0,0 l/m 4,2 km/h (1 Bft) S - 4,8 C 12,0 C 9,1 km/h (2 Bft)